KE8RXN Weather Reports


Display with metric or nautical units.
time (UTC)temp
F
wind
direction
speed
MPH
gust
MPH
rain 1hr
in
rain 24hr
in
rain mn
in
humidity
%
barometer
mb
20260505140224 49 350 1.0 2.0 0.00 0.00 0.00 56 1010.9
20260505130148 48 305 3.0 3.0 0.00 0.00 0.00 71 1010.5
20260505124631 48 261 1.0 2.0 0.00 0.00 0.00 76 1010.2
20260505124128 48 15 1.0 1.0 0.00 0.00 0.00 76 1010.0
20260505123624 48 357 1.0 2.0 0.00 0.00 0.00 77 1010.0
20260505123121 48 13 1.0 2.0 0.00 0.00 0.00 77 1010.0
20260505122618 48 299 3.0 3.0 0.00 0.00 0.00 77 1009.3
20260505122115 48 332 3.0 3.0 0.00 0.00 0.00 77 1009.1
20260505121611 48 8 1.0 1.0 0.00 0.00 0.00 77 1009.0
20260505121108 48 319 2.0 3.0 0.00 0.00 0.00 77 1008.9
20260505120604 48 308 2.0 2.0 0.00 0.00 0.00 76 1009.0
20260505120100 48 343 2.0 2.0 0.00 0.00 0.00 76 1009.0
20260505115554 48 322 2.0 2.0 0.00 0.00 0.00 75 1008.7
20260505115051 48 5 1.0 1.0 0.00 0.00 0.00 75 1009.0
20260505114543 48 344 3.0 3.0 0.00 0.00 0.00 76 1009.0
20260505114039 48 271 3.0 3.0 0.00 0.00 0.00 76 1008.8
20260505113536 48 298 2.0 2.0 0.00 0.00 0.00 78 1008.8
20260505113032 48 6 2.0 2.0 0.00 0.00 0.00 79 1008.8
20260505112528 48 340 2.0 2.0 0.00 0.00 0.00 79 1008.5
20260505112027 48 354 1.0 1.0 0.00 0.00 0.00 79 1008.2
20260505111526 48 355 1.0 1.0 0.00 0.00 0.00 78 1008.2
20260505111022 48 313 1.0 2.0 0.00 0.00 0.00 78 1008.2
20260505110520 48 2 1.0 1.0 0.00 0.00 0.00 78 1008.0
20260505101951 48 353 1.0 1.0 0.00 0.00 0.00 78 1007.2
20260505101444 48 356 1.0 1.0 0.00 0.00 0.00 77 1007.2
20260505100940 48 267 2.0 2.0 0.00 0.00 0.00 76 1007.3
20260505100438 48 13 1.0 1.0 0.00 0.00 0.00 75 1007.0
20260505095933 48 299 2.0 2.0 0.00 0.00 0.00 73 1007.3
20260505095431 49 301 2.0 2.0 0.00 0.00 0.00 72 1006.8
20260505094927 49 313 1.0 2.0 0.00 0.00 0.00 71 1006.6
20260505094424 49 349 1.0 1.0 0.00 0.00 0.00 71 1006.4
20260505093920 50 14 1.0 1.0 0.00 0.00 0.00 70 1006.2
20260505093417 50 309 2.0 2.0 0.00 0.00 0.00 69 1006.3
20260505092914 50 18 0.0 1.0 0.00 0.00 0.00 68 1006.1
20260505092412 51 321 2.0 3.0 0.00 0.00 0.00 66 1006.0
20260505091909 51 16 1.0 1.0 0.00 0.00 0.00 65 1006.1
20260505091406 51 280 2.0 2.0 0.00 0.00 0.00 64 1005.9
20260505090904 51 335 1.0 1.0 0.00 0.00 0.00 64 1005.9
20260505090403 51 263 2.0 3.0 0.00 0.00 0.00 63 1005.6
20260505085859 52 304 2.0 2.0 0.00 0.00 0.00 62 1005.2
20260505085357 52 338 1.0 1.0 0.00 0.00 0.00 61 1005.1
20260505084855 52 329 1.0 1.0 0.00 0.00 0.00 61 1005.0
20260505084353 52 322 1.0 1.0 0.00 0.00 0.00 61 1005.1
20260505083850 53 219 2.0 2.0 0.00 0.00 0.00 59 1004.9
20260505083348 53 299 1.0 2.0 0.00 0.00 0.00 61 1005.3
20260505082844 53 248 2.0 2.0 0.00 0.00 0.00 60 1005.0
20260505082340 53 1 1.0 1.0 0.00 0.00 0.00 60 1005.1
20260505081837 53 209 2.0 2.0 0.00 0.00 0.00 59 1004.7
20260505081333 53 11 1.0 1.0 0.00 0.00 0.00 59 1004.6
20260505080830 53 16 1.0 1.0 0.00 0.00 0.00 59 1004.6
20260505080326 53 351 1.0 1.0 0.00 0.00 0.00 59 1004.7
20260505075822 54 18 0.0 0.0 0.00 0.00 0.00 61 1004.6
20260505075319 54 269 1.0 2.0 0.00 0.00 0.00 60 1004.5
20260505074816 54 224 2.0 2.0 0.00 0.00 0.00 61 1004.5
20260505074314 54 347 1.0 1.0 0.00 0.00 0.00 63 1004.3
20260505073811 54 328 2.0 2.0 0.00 0.00 0.00 64 1004.4
20260505073309 54 343 1.0 1.0 0.00 0.00 0.00 65 1004.1
20260505072805 54 256 3.0 3.0 0.00 0.00 0.00 66 1004.3
20260505072301 54 237 2.0 3.0 0.00 0.00 0.00 66 1004.5
20260505071757 54 321 2.0 2.0 0.00 0.00 0.00 66 1004.2
20260505071254 54 233 5.0 6.0 0.00 0.00 0.00 70 1004.3
20260505070752 54 335 3.0 3.0 0.00 0.00 0.00 74 1004.4
20260505070248 54 341 2.0 2.0 0.00 0.00 0.00 76 1004.5
20260505065743 54 278 2.0 2.0 0.00 0.00 0.00 77 1004.5
20260505065241 54 255 3.0 3.0 0.00 0.00 0.00 78 1004.4
20260505064738 54 331 1.0 1.0 0.00 0.00 0.00 79 1004.3
20260505064235 54 189 3.0 3.0 0.00 0.00 0.00 79 1004.1
20260505063733 54 301 1.0 1.0 0.00 0.00 0.00 80 1004.1
20260505063229 54 231 1.0 2.0 0.00 0.00 0.00 80 1004.0
20260505062725 54 237 2.0 2.0 0.00 0.00 0.00 79 1004.0
20260505062223 54 233 3.0 3.0 0.00 0.00 0.00 81 1004.0
20260505061720 54 265 2.0 2.0 0.00 0.00 0.00 82 1003.9
20260505061218 54 21 0.0 1.0 0.00 0.00 0.00 82 1003.6
20260505060715 55 270 2.0 2.0 0.00 0.00 0.00 83 1004.0
20260505060212 55 211 5.0 6.0 0.00 0.00 0.00 83 1004.2
20260505055707 55 202 1.0 2.0 0.00 0.00 0.00 82 1003.9
20260505055204 55 246 1.0 1.0 0.00 0.00 0.00 83 1003.8
20260505054701 55 230 2.0 3.0 0.00 0.00 0.00 83 1003.9
20260505054159 55 225 2.0 2.0 0.00 0.00 0.00 82 1003.8
20260505053656 55 237 3.0 3.0 0.00 0.00 0.00 82 1003.8
20260505053153 56 217 3.0 3.0 0.00 0.00 0.00 81 1003.6
20260505052650 56 217 3.0 3.0 0.00 0.00 0.00 81 1003.6
20260505052147 56 28 1.0 1.0 0.00 0.00 0.00 81 1003.4
20260505051644 56 220 3.0 3.0 0.00 0.00 0.00 80 1003.4
20260505051142 57 81 1.0 1.0 0.00 0.00 0.00 80 1003.6
20260505050639 57 271 1.0 2.0 0.00 0.00 0.00 80 1003.4
20260505050138 57 270 2.0 3.0 0.00 0.00 0.00 79 1003.5
20260505041607 58 236 4.0 5.0 0.00 0.00 0.00 77 1003.2
20260505041105 59 247 3.0 5.0 0.00 0.00 0.00 77 1003.1
20260505040602 59 244 2.0 3.0 0.00 0.00 0.00 76 1003.1
20260505040059 60 270 3.0 5.0 0.00 0.01 0.01 75 1003.2
20260505035555 60 295 6.0 7.0 0.00 0.01 0.01 75 1003.2
20260505035052 61 271 3.0 5.0 0.00 0.01 0.01 74 1003.2
20260505034548 62 297 4.0 6.0 0.00 0.01 0.01 73 1003.3
20260505034045 62 256 3.0 3.0 0.00 0.01 0.01 73 1003.1
20260505033542 62 335 4.0 6.0 0.00 0.01 0.01 73 1003.1
20260505033040 62 302 2.0 2.0 0.00 0.01 0.01 72 1003.1
20260505032538 63 214 4.0 5.0 0.00 0.01 0.01 71 1003.0
20260505032034 63 243 5.0 7.0 0.00 0.01 0.01 71 1002.6
20260505031532 63 251 2.0 2.0 0.00 0.01 0.01 71 1002.1
20260505031028 63 229 3.0 5.0 0.00 0.01 0.01 72 1002.1
20260505030525 63 198 2.0 2.0 0.00 0.01 0.01 72 1001.9
20260505030021 62 320 2.0 3.0 0.00 0.01 0.01 73 1001.9
20260505025517 62 32 3.0 6.0 0.07 0.01 0.01 76 1001.6
20260505025016 63 205 3.0 7.0 0.07 0.01 0.01 74 1001.6
20260505024512 64 181 7.0 8.0 0.00 0.00 0.00 69 1001.9
20260505024009 65 284 3.0 5.0 0.00 0.00 0.00 66 1002.2
20260505023506 65 221 9.0 15.0 0.00 0.00 0.00 65 1001.7
20260505023004 65 96 4.0 8.0 0.00 0.00 0.00 64 1001.3
20260505022502 66 229 7.0 10.0 0.00 0.00 0.00 64 1001.3
20260505021959 66 344 1.0 1.0 0.00 0.00 0.00 64 1001.2
20260505021455 66 244 5.0 8.0 0.00 0.00 0.00 63 1001.2
20260505020950 67 216 9.0 11.0 0.00 0.00 0.00 63 1001.1
20260505020446 67 222 6.0 8.0 0.00 0.00 0.00 64 1001.1
20260505015943 67 229 4.0 6.0 0.00 0.00 0.00 64 1001.3
20260505015440 67 207 6.0 9.0 0.00 0.00 0.00 65 1001.2
20260505014937 68 216 10.0 15.0 0.00 0.00 0.00 65 1001.3
20260505014434 69 209 11.0 15.0 0.00 0.00 0.00 61 1001.3
20260505013932 69 219 12.0 15.0 0.00 0.00 0.00 60 1001.1
20260505013428 69 191 8.0 11.0 0.00 0.00 0.00 59 1000.6
20260505012926 69 229 7.0 8.0 0.00 0.00 0.00 58 1000.6
20260505012424 70 356 6.0 9.0 0.00 0.00 0.00 58 1000.5
20260505011920 70 345 4.0 7.0 0.00 0.00 0.00 58 1000.6
20260505011416 70 83 3.0 5.0 0.00 0.00 0.00 57 1000.4
20260505010913 70 222 10.0 11.0 0.00 0.00 0.00 56 1000.2
20260505010409 70 19 7.0 8.0 0.00 0.00 0.00 56 1000.3
20260505005905 70 215 4.0 6.0 0.00 0.00 0.00 54 1000.4
20260505005402 70 168 2.0 3.0 0.00 0.00 0.00 53 1000.4
20260505004900 71 226 5.0 7.0 0.00 0.00 0.00 51 1000.4
20260505004356 71 229 7.0 9.0 0.00 0.00 0.00 49 1000.5
20260505003853 72 276 4.0 7.0 0.00 0.00 0.00 45 1000.5
20260505003350 72 101 5.0 8.0 0.00 0.00 0.00 41 1000.3
20260505002846 72 180 3.0 6.0 0.00 0.00 0.00 40 1000.2
20260505002343 72 43 1.0 1.0 0.00 0.00 0.00 40 1000.0
20260505001842 73 275 7.0 8.0 0.00 0.00 0.00 40 999.9
20260505001338 73 275 3.0 5.0 0.00 0.00 0.00 40 999.9
20260505000835 73 219 3.0 5.0 0.00 0.00 0.00 40 999.7
20260505000333 73 237 5.0 8.0 0.00 0.00 0.00 40 1000.0
20260504235830 73 0 2.0 3.0 0.00 0.00 0.00 40 999.9
20260504235327 73 142 2.0 2.0 0.00 0.00 0.00 39 999.8
20260504234823 73 217 7.0 8.0 0.00 0.00 0.00 39 999.9
20260504234321 74 272 3.0 5.0 0.00 0.00 0.00 39 1000.1
20260504233817 74 193 7.0 8.0 0.00 0.00 0.00 38 1000.2
20260504233313 74 223 2.0 2.0 0.00 0.00 0.00 38 1000.1
20260504232810 74 342 2.0 3.0 0.00 0.00 0.00 38 1000.2
20260504232307 74 248 2.0 3.0 0.00 0.00 0.00 38 1000.5
20260504231804 74 231 4.0 5.0 0.00 0.00 0.00 38 1000.5
20260504231300 74 194 3.0 3.0 0.00 0.00 0.00 37 1000.6
20260504230756 74 333 8.0 11.0 0.00 0.00 0.00 37 1000.9
20260504230255 74 229 6.0 9.0 0.00 0.00 0.00 37 1000.9
20260504225753 74 250 7.0 9.0 0.00 0.00 0.00 37 1001.1
20260504225249 74 231 5.0 8.0 0.00 0.00 0.00 37 1001.3
20260504224746 74 231 4.0 5.0 0.00 0.00 0.00 37 1001.1
20260504224244 74 210 3.0 6.0 0.00 0.00 0.00 38 1001.4
20260504223740 74 219 9.0 11.0 0.00 0.00 0.00 37 1001.5
20260504223235 74 220 5.0 7.0 0.00 0.00 0.00 37 1001.7
20260504222733 74 181 8.0 9.0 0.00 0.00 0.00 36 1001.6
20260504222229 74 112 5.0 6.0 0.00 0.00 0.00 37 1001.7
20260504221727 74 194 8.0 16.0 0.00 0.00 0.00 37 1001.7
20260504221224 74 261 7.0 7.0 0.00 0.00 0.00 37 1001.7
20260504220720 75 230 7.0 9.0 0.00 0.00 0.00 36 1001.8
20260504220218 75 233 4.0 6.0 0.00 0.00 0.00 36 1001.8
20260504215715 75 338 5.0 9.0 0.00 0.00 0.00 37 1002.0
20260504215212 74 224 10.0 13.0 0.00 0.00 0.00 36 1002.0
20260504214707 74 223 7.0 9.0 0.00 0.00 0.00 37 1002.0
20260504214204 74 228 9.0 15.0 0.00 0.00 0.00 36 1002.0
20260504213701 75 168 5.0 8.0 0.00 0.00 0.00 37 1001.9
20260504213157 74 223 9.0 11.0 0.00 0.00 0.00 36 1002.0
20260504212654 74 233 6.0 10.0 0.00 0.00 0.00 37 1002.3
20260504212150 74 184 9.0 11.0 0.00 0.00 0.00 36 1002.3
20260504211648 74 261 9.0 15.0 0.00 0.00 0.00 36 1002.5
20260504211144 74 209 12.0 20.0 0.00 0.00 0.00 36 1002.4
20260504210642 74 252 8.0 14.0 0.00 0.00 0.00 36 1002.5
20260504210138 74 246 4.0 6.0 0.00 0.00 0.00 37 1002.6
20260504205636 74 215 7.0 13.0 0.00 0.00 0.00 36 1002.5
20260504205133 74 229 7.0 13.0 0.00 0.00 0.00 35 1002.5
20260504204632 74 216 10.0 16.0 0.00 0.00 0.00 35 1002.5
20260504204130 75 219 7.0 11.0 0.00 0.00 0.00 36 1002.9
20260504203628 74 260 6.0 7.0 0.00 0.00 0.00 35 1002.9
20260504203125 74 214 5.0 8.0 0.00 0.00 0.00 35 1002.9
20260504202620 73 239 5.0 8.0 0.00 0.00 0.00 35 1002.9
20260504202117 73 271 9.0 11.0 0.00 0.00 0.00 34 1003.1
20260504201614 73 321 5.0 9.0 0.00 0.00 0.00 33 1003.1
20260504201112 73 153 6.0 9.0 0.00 0.00 0.00 34 1003.2
20260504200609 73 206 8.0 14.0 0.00 0.00 0.00 37 1003.2
20260504200105 73 224 7.0 9.0 0.00 0.00 0.00 37 1003.2
20260504195601 73 221 17.0 21.0 0.00 0.00 0.00 35 1003.3
20260504195058 73 233 6.0 9.0 0.00 0.00 0.00 35 1003.2
20260504194554 73 236 7.0 11.0 0.00 0.00 0.00 36 1003.3
20260504194050 73 223 7.0 10.0 0.00 0.00 0.00 36 1003.4
20260504193547 73 235 7.0 9.0 0.00 0.00 0.00 35 1003.5
20260504193045 74 222 8.0 10.0 0.00 0.00 0.00 33 1003.5
20260504192543 74 258 3.0 5.0 0.00 0.00 0.00 33 1003.6
20260504192041 74 313 9.0 14.0 0.00 0.00 0.00 31 1003.4
20260504191539 74 249 11.0 13.0 0.00 0.00 0.00 30 1003.4
20260504191035 74 199 6.0 8.0 0.00 0.00 0.00 31 1003.5
20260504190531 74 229 4.0 8.0 0.00 0.00 0.00 30 1003.5
20260504190027 74 218 9.0 11.0 0.00 0.00 0.00 29 1003.5
20260504185525 74 224 7.0 10.0 0.00 0.00 0.00 30 1003.4
20260504185021 73 338 7.0 10.0 0.00 0.00 0.00 30 1003.5
20260504184516 74 190 5.0 7.0 0.00 0.00 0.00 30 1003.3
20260504184012 73 219 8.0 14.0 0.00 0.00 0.00 28 1003.6
20260504183509 74 231 11.0 14.0 0.00 0.00 0.00 27 1003.3
20260504183008 74 11 4.0 7.0 0.00 0.00 0.00 28 1003.6
20260504182504 74 297 11.0 15.0 0.00 0.00 0.00 27 1003.6
20260504182001 75 230 8.0 17.0 0.00 0.00 0.00 27 1003.4
20260504181458 74 223 11.0 15.0 0.00 0.00 0.00 27 1003.4
20260504180956 74 233 14.0 18.0 0.00 0.00 0.00 27 1003.5
20260504180455 74 243 8.0 11.0 0.00 0.00 0.00 28 1003.5
20260504175953 74 218 9.0 11.0 0.00 0.00 0.00 28 1003.6
20260504175450 74 216 6.0 9.0 0.00 0.00 0.00 28 1003.6
20260504174947 74 198 7.0 11.0 0.00 0.00 0.00 27 1003.8
20260504174445 74 240 6.0 8.0 0.00 0.00 0.00 29 1003.9
20260504173942 74 230 3.0 6.0 0.00 0.00 0.00 28 1004.0
20260504173438 74 21 5.0 8.0 0.00 0.00 0.00 29 1003.8
20260504172936 73 237 7.0 9.0 0.00 0.00 0.00 29 1003.9
20260504172432 73 222 12.0 13.0 0.00 0.00 0.00 27 1004.4
20260504171929 73 249 7.0 9.0 0.00 0.00 0.00 29 1004.3
20260504171426 74 223 11.0 16.0 0.00 0.00 0.00 29 1004.1
20260504170923 74 239 5.0 6.0 0.00 0.00 0.00 28 1004.2
20260504170419 74 217 5.0 8.0 0.00 0.00 0.00 30 1004.4
20260504160338 70 204 7.0 10.0 0.00 0.00 0.00 41 1005.0
20260504150803 66 71 2.0 3.0 0.00 0.00 0.00 54 1005.5
20260504150259 66 218 4.0 5.0 0.00 0.00 0.00 54 1005.6